Dayton Wright, OH

9:50 AM EDT on May 28, 2017 (GMT -0400)
Dayton-Wright Brothers

Weather History for KMGY - July, 2014

Change the Weather History Date:

Thursday, July 3, 2014

  Actual Average (KFFO) Record (KFFO)
Temperature  
Mean Temperature 67 °F -  
Max Temperature 72 °F 81 °F 97 °F (2012)
Min Temperature 62 °F 60 °F 53 °F (2010)
Cooling Degree Days 2    
Growing Degree Days 17 (Base 50)    
Moisture  
Dew Point 57 °F    
Average Humidity 73    
Maximum Humidity 90    
Minimum Humidity 42    
Precipitation  
Precipitation 0.00 in - - ()
Sea Level Pressure  
Sea Level Pressure 30.05 in    
Wind  
Wind Speed 7 mph (WNW)    
Max Wind Speed 14 mph    
Max Gust Speed 18 mph    
Visibility 10 miles    
Events Rain    
Averages and records for this station are not official NWS values.
T = Trace of Precipitation, MM = Missing Value Source: NWS Daily Summary

Daily Weather History Graph

Daily Weather History Graph

Search for Another Location

Airport or City:

Trip Planner

Search our weather history database for the weather conditions in past years. The results will help you decide how hot, cold, wet, or windy it might be!

Date:

Astronomy

Jul. 03, 2014 Rise Set
Actual Time 6:14 AM EDT 9:07 PM EDT
Civil Twilight 5:41 AM EDT 9:40 PM EDT
Nautical Twilight 5:00 AM EDT 10:20 PM EDT
Astronomical Twilight 4:13 AM EDT 11:07 PM EDT
Moon 12:11 PM EDT (7/3) 12:01 AM EDT (7/3)
Length of Visible Light 15h 58m
Length of Day
14h 53m
Waxing Crescent, 33% of the Moon is Illuminated
Jul 3
Waxing Crescent
Jul 5
First Quarter
Jul 12
Full
Jul 18
Last Quarter
Jul 26
New

Hourly Weather History & Observations

Time (EDT) Temp. Dew Point Humidity Pressure Visibility Wind Dir Wind Speed Gust Speed Precip Events Conditions
12:53 AM 69.1 °F 59.0 °F 70% 29.97 in 10.0 mi NNW 9.2 mph - N/A   Mostly Cloudy
1:53 AM 68.0 °F 59.0 °F 73% 29.98 in 10.0 mi NNW 4.6 mph - N/A   Overcast
2:53 AM 66.0 °F 59.0 °F 78% 29.98 in 10.0 mi WNW 3.5 mph - N/A   Mostly Cloudy
3:53 AM 64.9 °F 57.9 °F 78% 29.97 in 10.0 mi WSW 4.6 mph - N/A   Mostly Cloudy
4:53 AM 64.0 °F 57.9 °F 80% 29.97 in 10.0 mi SW 3.5 mph - N/A   Overcast
5:53 AM 63.0 °F 57.9 °F 84% 29.99 in 10.0 mi West 3.5 mph - N/A   Clear
6:23 AM 63.0 °F 59.0 °F 87% 30.01 in 10.0 mi Variable 3.5 mph - N/A   Mostly Cloudy
6:51 AM 62.6 °F 59.0 °F 88% 30.02 in 10.0 mi North - - N/A   Scattered Clouds
6:53 AM 62.1 °F 59.0 °F 90% 30.01 in 10.0 mi North - - N/A   Scattered Clouds
7:53 AM 63.0 °F 59.0 °F 87% 30.02 in 10.0 mi WSW 4.6 mph - N/A   Scattered Clouds
8:18 AM 63.0 °F 59.0 °F 87% 30.04 in 10.0 mi West 6.9 mph - N/A   Mostly Cloudy
8:34 AM 64.0 °F 60.1 °F 87% 30.04 in 10.0 mi WNW 8.1 mph - N/A   Mostly Cloudy
8:53 AM 64.0 °F 60.1 °F 87% 30.03 in 10.0 mi WNW 8.1 mph - N/A   Overcast
9:04 AM 63.0 °F 59.0 °F 87% 30.05 in 10.0 mi WNW 11.5 mph - N/A   Overcast
9:13 AM 64.0 °F 59.0 °F 84% 30.05 in 10.0 mi WNW 6.9 mph - N/A   Overcast
10:53 AM 66.0 °F 57.9 °F 75% 30.05 in 10.0 mi West 9.2 mph - N/A   Overcast
11:17 AM 68.0 °F 57.9 °F 70% 30.07 in 10.0 mi WNW 6.9 mph - N/A   Mostly Cloudy
11:53 AM 68.0 °F 57.9 °F 70% 30.06 in 10.0 mi WNW 8.1 mph - N/A   Overcast
12:53 PM 66.9 °F 59.0 °F 76% 30.08 in 10.0 mi WNW 8.1 mph - 0.00 in Rain Light Rain
1:53 PM 70.0 °F 59.0 °F 68% 30.08 in 10.0 mi WNW 10.4 mph - 0.00 in   Mostly Cloudy
3:53 PM 70.0 °F 57.0 °F 63% 30.08 in 10.0 mi WNW 13.8 mph - N/A   Overcast
4:53 PM 70.0 °F 55.9 °F 61% 30.09 in 10.0 mi NW 10.4 mph - N/A   Overcast
5:53 PM 72.0 °F 53.1 °F 51% 30.09 in 10.0 mi NW 11.5 mph - N/A   Scattered Clouds
6:53 PM 72.0 °F 51.1 °F 48% 30.09 in 10.0 mi NW 12.7 mph 18.4 mph N/A   Partly Cloudy
7:53 PM 71.1 °F 46.9 °F 42% 30.11 in 10.0 mi NNW 11.5 mph - N/A   Clear
8:53 PM 68.0 °F 48.0 °F 49% 30.12 in 10.0 mi NNW 4.6 mph - N/A   Clear
9:53 PM 64.9 °F 51.1 °F 61% 30.13 in 10.0 mi Calm Calm - N/A   Clear
10:53 PM 63.0 °F 51.1 °F 65% 30.15 in 10.0 mi NNW 4.6 mph - N/A   Clear
11:53 PM 62.1 °F 50.0 °F 65% 30.16 in 10.0 mi NNW 4.6 mph - N/A   Clear